Погода в Риддере

Казахстан     50°20′20″N   83°30′25″E
темп.,
°C
ветер,
м/с
пор.,
м/с
влажн.,
%
обл.,
%
осадки,
мм/ч
давл.,
гПа
погр.,
м
1 марта, пн
пн100:00−12юв61090100 2.0 1029476
03:00−11юв6990100 1.2 1027425
06:00−11юв6892100 3.3 1026300
09:00−10ююв6892100 3.4 1025463
12:00−8ююв6991100 6.1 1024570
15:00−8ююв5792100 2.9 1022397
18:00−9ююв5793100 5.6 1022294
21:00−9юв5793100 3.3 1022311
2 марта, вт
вт200:00−9ююв5793100 7.4 1022318
03:00−9ююв4694100 4.2 1021270
06:00−9ююв4693100 7.4 1022247
09:00−8ююв4692100 1.6 1022312
12:00−6ююв4691100 2.5 1020459
15:00−6ююв3592100 1.5 1018450
18:00−7ююв4594100 3.9 1017289
21:00−7ююв4595100 2.8 1017223
3 марта, ср
ср300:00−7ююв3495100 5.5 1017189
03:00−8ююв3495100 3.4 1017185
06:00−8ююв3495100 6.0 1019129
09:00−8ююз4595100 1.2 1021361
12:00−8зюз4494100 2.3 1022493
15:00−9юз3588100 0.4 1023742
18:00−14ююз229897 0.6 102520
21:00−14ююв3390100 0.0 102733
4 марта, чт
чт400:00−13юв3383100 0.0 102953
03:00−13юв448998 0.0 102863
06:00−14юв558593 0.0 103067
09:00−12юв568292 0.0 1030203
12:00−8ююв567478 0.0 1028525
15:00−7ююв467486 0.0 1027548
18:00−11юв447392 0.0 102751
21:00−12юв446218 0.0 102851
5 марта, пт
пт500:00−12юв446017 0.0 102748
03:00−10вюв556091 0.0 102571
06:00−8юв685996 0.0 1021136
09:00−6юв81784100 1.2 1017745
12:00−6ю51494100 7.3 1017781
15:00−5юз51094100 4.6 10221023
18:00−5ююз3497100 7.3 1027287
21:00−8ююв3496100 2.3 1031150